Starlink 11305

operational
NORAD ID: 61247 Int'l Des: 2024-175 Owner: SPXS Country: US Constellation: starlink
LEOCIRCULAR

关于 Starlink 11305

正在加载描述...

实时位置

正在加载3D地球...

即将过境

高度历史

Altitude vs Time

uPlot chart will show altitude changes over time

两行轨道根数

1 61247U 24175E 25306.44276382 .00001359 00000-0 16082-4 0 9990
2 61247 53.1580 323.3441 0001541 90.5497 269.5697 15.69710687 63383
Epoch: Nov 2, 2025 • Age: 24 hours

当前状态

高度 378.3 km
速度 7.68 km/s
星下点 -50.99°S, 2.86°E
发射日期 Sep 25, 2024
运行时间 1.1 years
类型 internet

技术详情

分类 Payload
质量 960.00 kg
干质量 910.00 kg
总质量 960.00 kg
长度 0.30 m
直径 4.10 m
跨度 29.00 m
形状 Box + pan
制造商 SPXS
平台类型 Starlink V2MD
阶段状态 In Orbit
所有者/国家 SPXS/US

大型星座

Loading constellations...